Location: Spiekeroog
(53.7670°N, 7.7000°E)
Time: 08:36:01
(UTC+02:00)

ISS - Visible Passes

Search period start: 20 September 2018 00:00
Search period end: 30 September 2018 00:00
Orbit: 402 x 408 km, 51.6° (Epoch: 20 September)

Date Brightness Start Highest point End Pass type
(mag) Time Alt. Az. Time Alt. Az. Time Alt. Az.
23 Sep -1.9 21:10:30 10° SSW 21:11:54 17° S 21:11:54 17° S visible
24 Sep -1.8 20:19:22 10° S 20:21:15 14° SE 20:22:20 13° ESE visible
24 Sep -1.5 21:54:01 10° SW 21:55:01 18° SW 21:55:01 18° SW visible
25 Sep -2.9 21:02:15 10° SW 21:05:14 32° SSE 21:05:16 32° SSE visible
26 Sep -2.4 20:10:40 10° SSW 20:13:21 23° SSE 20:15:26 14° ESE visible
26 Sep -2.3 21:46:14 10° WSW 21:48:06 30° SW 21:48:06 30° SW visible
27 Sep -3.4 20:54:18 10° WSW 20:57:28 45° SSE 20:58:09 38° SE visible
27 Sep -0.7 22:30:31 10° W 22:30:49 12° W 22:30:49 12° W visible
28 Sep -2.9 20:02:27 10° SW 20:05:30 35° SSE 20:08:07 13° E visible
28 Sep -2.7 21:38:29 10° W 21:40:47 39° WSW 21:40:47 39° WSW visible
29 Sep -3.6 20:46:28 10° WSW 20:49:42 56° S 20:50:42 37° ESE visible
29 Sep -0.8 22:22:49 10° W 22:23:22 14° W 22:23:22 14° W visible
